When you browse on this site, cookies collect data to enhance your experience and personalize the content and advertising you see.
Visit our Privacy Policy to learn more. By continuing to use the site, you agree to this use of cookies and data.
  • In Österreich
  • Länderverzeichnis
  • Für 7 Tage
  • Wassertemperatur
  • Satellitenkarten
  • Wetterkarte
  • News
  • Widgets
  • user-avatar
    Anmelden

    Stündliche Wetter Tultschin

    Heute, 22 Juli, Montag

    Zeit Temperatur Niederschläge Wind Luftdruck Luftfeuchtigkeit
    00:00 +22°C° 0 mm 1 m/S 743 mmHg 69%
    01:00 +21°C° 0 mm 1 m/S 743 mmHg 70%
    02:00 +21°C° 0 mm 1 m/S 743 mmHg 72%
    03:00 +21°C° 0 mm 1 m/S 743 mmHg 74%
    04:00 +20°C° 0 mm 1 m/S 743 mmHg 76%
    05:00 +19°C° 0 mm 2 m/S 742 mmHg 78%
    06:00 +20°C° 0 mm 2 m/S 743 mmHg 78%
    07:00 +21°C° 0 mm 3 m/S 743 mmHg 77%
    08:00 +22°C° 0 mm 4 m/S 743 mmHg 77%
    09:00 +23°C° 0 mm 4 m/S 743 mmHg 75%
    10:00 +25°C° 0 mm 4 m/S 743 mmHg 72%
    11:00 +25°C° 0 mm 5 m/S 743 mmHg 70%
    12:00 +26°C° 0 mm 4 m/S 743 mmHg 68%
    13:00 +26°C° 0 mm 4 m/S 743 mmHg 66%
    14:00 +27°C° 0 mm 4 m/S 743 mmHg 64%
    15:00 +27°C° 0 mm 4 m/S 743 mmHg 64%
    16:00 +27°C° 0 mm 4 m/S 743 mmHg 64%
    17:00 +27°C° 0 mm 4 m/S 742 mmHg 65%
    18:00 +25°C° 0 mm 4 m/S 742 mmHg 71%
    19:00 +22°C° 0 mm 3 m/S 742 mmHg 78%
    20:00 +21°C° 0 mm 3 m/S 742 mmHg 84%
    21:00 +20°C° 0 mm 3 m/S 742 mmHg 87%
    22:00 +19°C° 0 mm 3 m/S 742 mmHg 89%
    23:00 +19°C° 0 mm 3 m/S 742 mmHg 92%

    Morgen, 23 Juli, Dienstag

    Zeit Temperatur Niederschläge Wind Luftdruck Luftfeuchtigkeit
    00:00 +18°C° 0 mm 3 m/S 742 mmHg 92%
    01:00 +17°C° 0 mm 3 m/S 742 mmHg 92%
    02:00 +17°C° 0 mm 3 m/S 742 mmHg 92%
    03:00 +17°C° 0 mm 3 m/S 742 mmHg 91%
    04:00 +16°C° 0 mm 3 m/S 742 mmHg 89%
    05:00 +16°C° 0 mm 3 m/S 742 mmHg 88%
    06:00 +17°C° 0 mm 3 m/S 741 mmHg 85%
    07:00 +18°C° 0 mm 3 m/S 741 mmHg 82%
    08:00 +19°C° 0 mm 3 m/S 741 mmHg 79%
    09:00 +21°C° 0 mm 4 m/S 741 mmHg 72%
    10:00 +22°C° 0 mm 4 m/S 742 mmHg 65%
    11:00 +23°C° 0 mm 4 m/S 742 mmHg 58%
    12:00 +25°C° 0.2 mm 4 m/S 741 mmHg 57%
    13:00 +25°C° 0.2 mm 5 m/S 741 mmHg 55%
    14:00 +25°C° 0.2 mm 5 m/S 740 mmHg 53%
    15:00 +25°C° 0 mm 5 m/S 740 mmHg 54%
    16:00 +23°C° 0 mm 5 m/S 740 mmHg 54%
    17:00 +23°C° 0 mm 5 m/S 740 mmHg 55%
    18:00 +21°C° 0 mm 4 m/S 740 mmHg 62%
    19:00 +20°C° 0 mm 4 m/S 740 mmHg 69%
    20:00 +18°C° 0 mm 3 m/S 740 mmHg 76%
    21:00 +17°C° 0 mm 3 m/S 740 mmHg 79%
    22:00 +17°C° 0 mm 3 m/S 740 mmHg 82%
    23:00 +16°C° 0 mm 3 m/S 741 mmHg 84%

    übermorgen, 24 Juli, Mittwoch

    Zeit Temperatur Niederschläge Wind Luftdruck Luftfeuchtigkeit
    00:00 +15°C° 0 mm 4 m/S 740 mmHg 84%
    01:00 +17°C° 0 mm 4 m/S 740 mmHg 83%
    02:00 +17°C° 0 mm 4 m/S 740 mmHg 82%
    03:00 +17°C° 0 mm 4 m/S 740 mmHg 84%
    04:00 +15°C° 0 mm 5 m/S 740 mmHg 86%
    05:00 +15°C° 0 mm 5 m/S 740 mmHg 87%
    06:00 +16°C° 0 mm 5 m/S 740 mmHg 83%
    07:00 +17°C° 0 mm 6 m/S 740 mmHg 79%
    08:00 +20°C° 0 mm 6 m/S 740 mmHg 75%
    09:00 +21°C° 0.3 mm 6 m/S 740 mmHg 72%
    10:00 +22°C° 0.3 mm 7 m/S 740 mmHg 70%
    11:00 +23°C° 0.3 mm 7 m/S 740 mmHg 68%
    12:00 +23°C° 0.6 mm 7 m/S 740 mmHg 66%
    13:00 +23°C° 0.6 mm 7 m/S 740 mmHg 64%
    14:00 +24°C° 0.6 mm 7 m/S 740 mmHg 63%
    15:00 +24°C° 0.1 mm 7 m/S 739 mmHg 64%
    16:00 +24°C° 0.1 mm 7 m/S 739 mmHg 64%
    17:00 +24°C° 0.1 mm 7 m/S 739 mmHg 65%
    18:00 +22°C° 0.1 mm 6 m/S 739 mmHg 72%
    19:00 +21°C° 0.1 mm 5 m/S 740 mmHg 78%
    20:00 +19°C° 0.1 mm 4 m/S 740 mmHg 84%
    21:00 +18°C° 0 mm 4 m/S 740 mmHg 86%
    22:00 +18°C° 0 mm 4 m/S 740 mmHg 88%
    23:00 +17°C° 0 mm 4 m/S 740 mmHg 90%

    25 Juli, Donnerstag

    Zeit Temperatur Niederschläge Wind Luftdruck Luftfeuchtigkeit
    00:00 +15°C° 0 mm 4 m/S 740 mmHg 90%
    01:00 +15°C° 0 mm 4 m/S 740 mmHg 91%
    02:00 +15°C° 0 mm 4 m/S 740 mmHg 92%
    03:00 +14°C° 0 mm 4 m/S 740 mmHg 91%
    04:00 +14°C° 0 mm 4 m/S 740 mmHg 90%
    05:00 +14°C° 0 mm 5 m/S 740 mmHg 90%
    06:00 +15°C° 0 mm 5 m/S 740 mmHg 86%
    07:00 +17°C° 0 mm 6 m/S 740 mmHg 82%
    08:00 +19°C° 0 mm 6 m/S 740 mmHg 78%
    09:00 +19°C° 0.2 mm 6 m/S 740 mmHg 79%
    10:00 +19°C° 0.2 mm 6 m/S 740 mmHg 80%
    11:00 +17°C° 0.2 mm 6 m/S 740 mmHg 81%
    12:00 +20°C° 0.2 mm 6 m/S 740 mmHg 76%
    13:00 +21°C° 0.2 mm 6 m/S 740 mmHg 72%
    14:00 +22°C° 0.2 mm 7 m/S 740 mmHg 67%
    15:00 +22°C° 0.3 mm 7 m/S 740 mmHg 70%
    16:00 +22°C° 0.3 mm 7 m/S 740 mmHg 72%
    17:00 +22°C° 0.3 mm 7 m/S 740 mmHg 75%
    18:00 +21°C° 0.1 mm 6 m/S 740 mmHg 79%
    19:00 +20°C° 0.1 mm 5 m/S 740 mmHg 84%
    20:00 +18°C° 0.1 mm 4 m/S 739 mmHg 89%
    21:00 +18°C° 0 mm 4 m/S 740 mmHg 91%
    22:00 +17°C° 0 mm 4 m/S 740 mmHg 94%
    23:00 +17°C° 0 mm 4 m/S 740 mmHg 96%

    26 Juli, Freitag

    Zeit Temperatur Niederschläge Wind Luftdruck Luftfeuchtigkeit
    00:00 +17°C° 0 mm 4 m/S 740 mmHg 97%
    01:00 +15°C° 0 mm 4 m/S 740 mmHg 97%
    02:00 +16°C° 0 mm 3 m/S 740 mmHg 97%
    03:00 +15°C° 0 mm 4 m/S 740 mmHg 97%
    04:00 +15°C° 0 mm 4 m/S 740 mmHg 98%
    05:00 +15°C° 0 mm 4 m/S 740 mmHg 98%
    06:00 +17°C° 0 mm 4 m/S 740 mmHg 95%
    07:00 +18°C° 0 mm 4 m/S 740 mmHg 92%
    08:00 +17°C° 0 mm 5 m/S 741 mmHg 89%
    09:00 +20°C° 0.1 mm 5 m/S 741 mmHg 83%
    10:00 +21°C° 0.1 mm 6 m/S 741 mmHg 77%
    11:00 +23°C° 0.1 mm 6 m/S 741 mmHg 71%
    12:00 +24°C° 0.7 mm 6 m/S 741 mmHg 70%
    13:00 +24°C° 0.7 mm 6 m/S 740 mmHg 69%
    14:00 +26°C° 0.7 mm 6 m/S 740 mmHg 69%
    15:00 +26°C° 0.3 mm 6 m/S 740 mmHg 68%
    16:00 +26°C° 0.3 mm 6 m/S 740 mmHg 68%
    17:00 +26°C° 0.3 mm 5 m/S 740 mmHg 68%
    18:00 +25°C° 0 mm 5 m/S 740 mmHg 74%
    19:00 +22°C° 0 mm 4 m/S 740 mmHg 79%
    20:00 +21°C° 0 mm 3 m/S 740 mmHg 85%
    21:00 +20°C° 0 mm 3 m/S 740 mmHg 88%
    22:00 +19°C° 0 mm 3 m/S 740 mmHg 90%
    23:00 +18°C° 0 mm 3 m/S 740 mmHg 93%

    27 Juli, Samstag

    Zeit Temperatur Niederschläge Wind Luftdruck Luftfeuchtigkeit
    00:00 +18°C° 0 mm 3 m/S 740 mmHg 93%
    01:00 +18°C° 0 mm 3 m/S 740 mmHg 93%
    02:00 +17°C° 0 mm 3 m/S 740 mmHg 93%
    03:00 +17°C° 0 mm 3 m/S 740 mmHg 93%
    04:00 +17°C° 0 mm 3 m/S 740 mmHg 94%
    05:00 +16°C° 0 mm 3 m/S 740 mmHg 94%
    06:00 +18°C° 0 mm 3 m/S 740 mmHg 89%
    07:00 +20°C° 0 mm 3 m/S 740 mmHg 84%
    08:00 +22°C° 0 mm 3 m/S 740 mmHg 79%
    09:00 +24°C° 0.1 mm 3 m/S 740 mmHg 73%
    10:00 +25°C° 0.1 mm 3 m/S 740 mmHg 67%
    11:00 +27°C° 0.1 mm 3 m/S 740 mmHg 60%
    12:00 +27°C° 0.2 mm 4 m/S 740 mmHg 59%
    13:00 +27°C° 0.2 mm 4 m/S 740 mmHg 58%
    14:00 +27°C° 0.2 mm 4 m/S 739 mmHg 56%
    15:00 +27°C° 0 mm 4 m/S 739 mmHg 55%
    16:00 +27°C° 0 mm 4 m/S 739 mmHg 54%
    17:00 +27°C° 0 mm 3 m/S 739 mmHg 53%
    18:00 +25°C° 0 mm 3 m/S 739 mmHg 59%
    19:00 +23°C° 0 mm 2 m/S 739 mmHg 65%
    20:00 +22°C° 0 mm 1 m/S 739 mmHg 72%
    21:00 +20°C° 0 mm 2 m/S 739 mmHg 74%
    22:00 +20°C° 0 mm 2 m/S 739 mmHg 76%
    23:00 +19°C° 0 mm 2 m/S 739 mmHg 78%
    Mehr zeigen